Volver al catálogo

STARLINK-6302

ActivoComunicacionesVLEO
NORAD 56396·PAYLOAD·🇺🇸 United States

Lanzado May 4, 2023 desde Cape Canaveral Space Force Station

Loading…

Próximos Pases (próximas 24 horas)

TLE

ActualizadoSource: CelesTrak SupGP

Época: Sep 14, 2026, 13:50 UTC

1 56396C 23061Y   26257.57687500 -.00029650  00000+0 -10742-2 0  2577
2 56396  43.0027 200.1294 0001595 267.8010 124.6136 15.27584789    19

Sigue STARLINK-6302 en tiempo real con AllMySat

Download on the App Store